Karamyk

Kyrgyzstan     39˚29′22″N   71˚47′49″E
temp.,
°C
wind,
m/s
gust,
m/s
humid.,
%
clouds,
%
prec.,
mm/h
press.,
hPa
HPBL,
m
29 november, sun
sun2900:00−14˚wnw347686 0.1 104321
03:00−15˚wnw23636 0.0 104220
06:00−15˚wnw225318 0.0 104220
09:00−15˚wnw12439 0.0 104121
12:00−9˚ene015114 0.0 103699
15:00−7˚wnw017243 0.0 103379
18:00−14˚nw124121 0.0 103521
21:00−15˚nnw12230 0.0 103721
30 november, mon
mon3000:00−16˚nw12190 0.0 103720
03:00−16˚nw12193 0.0 103720
06:00−16˚nnw121927 0.0 103621
09:00−15˚n121624 0.0 103521
12:00−8˚nne015238 0.0 1031104
15:00−6˚nw0159100 0.0 102734
18:00−9˚nw1136100 0.0 102721
21:00−7˚w1250100 0.1 102721
1 december, tue
tue100:00−9˚wnw2279100 0.1 102721
03:00−8˚w1295100 0.7 102629
06:00−8˚w1296100 1.7 102527
09:00−8˚wnw1296100 1.1 102630
12:00−5˚ssw2394100 2.3 1025230
15:00−4˚sw3494100 1.3 1024300
18:00−7˚w338899 1.6 102626
21:00−8˚w238796 0.1 102922
2 december, wed
wed200:00−10˚wsw228798 0.2 103121
03:00−10˚w1280100 0.0 103121
06:00−11˚w1275100 0.0 103221
09:00−11˚wnw227186 0.0 103321
12:00−5˚wsw127192 0.0 1029153
15:00−4˚wsw238097 0.0 1027157
18:00−8˚w237092 0.0 102821
21:00−10˚wnw126867 0.0 103021
3 december, thu
thu300:00−11˚w127265 0.0 103121
03:00−11˚wnw127744 0.0 103121
06:00−11˚wsw117672 0.1 103121
09:00−10˚nw117263 0.0 103121
12:00−5˚sw017278 0.0 1027114
15:00−4˚sw227789 0.0 1023177
18:00−6˚w337895 0.0 102424
21:00−7˚w2292100 0.1 102522